sat.trackr.live / text

‹ back to catalog

STARLINK-34734

NORAD 65696 · 2025-212W

PAYLOAD ACTIVE UNKNOWN

§ Identity

Operator
Country
US
Launch date
2025-09-21
Launch site
AFETR
Launch vehicle
Mass (kg)
RCS (m²)

Purposes: comms

External: N2YO · Heavens-Above · Gunter

§ Orbital elements

Epoch: 2026-05-25T00:00:07.248096Z

Period
94.01 min
Inclination
53.1601°
Eccentricity
0.0001252
Mean motion
15.31711910 rev/d
Perigee alt
469.8 km
Apogee alt
471.6 km
Semi-major
6,848.8 km
B*
3.5246e-4
RAAN
350.7469°
Arg perigee
87.1232°
Mean anomaly
272.9912°
Rev number
3,893

§ Raw data

STARLINK-347341 65696U 25212W   26145.00008389  .00010592  00000+0  35246-3 0  99992 65696  53.1601 350.7469 0001252  87.1232 272.9912 15.31711910 38931

JSON: /api/v1/satellites/65696 · /tle

For live sub-satellite position, see the globe view (requires WebGL).

§ Visibility from observer

Set your observer location to see the next 7 days of passes ≥ 10°. The values pass through the URL so the page stays shareable.

No JS? Fill the form by hand. The geolocation button needs JavaScript.